[[{"header":{"parameterUnit":"m.s-1","parameterCategory":1,"la1":30.2991,"la2":30.254,"lo1":-89.0895,"lo2":-89.0444,"dy":0.0017,"dx":0.0017,"nx":28,"ny":28,"refTime":"2026-02-14T03:00:00:Z","depth":0,"parameterNumber":2,"parameterNumberName":"U-component_of_WINDS"},"data":[0,0,0,0,0,0,0,0,0,0,0,0,0,0,0,0,0,0,0,0,0,0,0,0,0,0,0,0,0,0,0,0,0,0,0,0,0,0,0,0,0,0,0,0,0,0,0,0,0,0,0,0,0,0,0,0,0,0,6.1718,6.1716,0,6.1547,6.1545,6.1543,6.1486,6.1487,6.1487,6.1488,6.1309,6.1304,6.1298,0,0,0,0,0,0,0,0,0,0,0,0,0,6.1994,6.199,6.1718,6.1716,6.1714,6.1547,6.1545,6.1543,6.1486,6.1487,6.1488,6.1489,6.1311,6.1304,6.1298,0,0,0,0,0,0,0,0,0,0,0,0,0,6.1854,6.1988,6.1719,6.1666,6.1659,6.1548,6.1545,6.1542,6.1486,6.1487,6.1488,6.1489,6.1313,6.1305,6.1297,6.1225,0,0,6.1272,6.1268,0,0,0,0,0,0,0,0,6.1862,6.1844,6.1675,6.1669,6.1662,6.1539,6.1577,6.1435,6.1485,6.1551,6.1488,6.1489,6.1384,6.137,6.1336,6.1216,6.1208,6.1271,6.1266,6.1263,6.126,0,0,0,0,0,0,0,6.1872,6.1851,6.165,6.1673,6.1665,6.165,6.1631,6.155,6.1464,6.1546,6.1541,6.1522,6.1381,6.1344,6.1331,6.1206,6.1271,6.1264,6.1259,6.1256,6.1023,6.1022,0,0,0,0,0,0,6.1891,6.1859,6.1656,6.1645,6.1767,6.1644,6.1623,6.1577,6.1464,6.1448,6.1521,6.152,6.1357,6.1341,6.1325,6.1235,6.1263,6.1255,6.125,6.1024,6.1023,6.1021,0,0,0,0,0,0,6.1897,6.1873,6.1663,6.1751,6.1723,6.1638,6.1587,6.1573,6.1536,6.1446,6.143,6.1499,6.1357,6.1336,6.1251,6.1228,6.1251,6.1244,6.1026,6.1024,6.1022,6.1054,0,0,0,0,0,0,6.1905,6.1876,6.1847,6.1751,6.1719,6.1592,6.1586,6.1569,6.1523,6.152,6.1421,6.1406,6.1357,6.1264,6.1243,6.1217,6.1238,6.1028,6.1025,6.1023,6.1055,6.1053,6.1052,0,0,0,0,0,6.1915,6.1861,6.1846,6.1822,6.1681,6.1591,6.1572,6.1518,6.1521,6.1492,6.1435,6.1409,6.1235,6.1255,6.1232,6.1203,6.1029,6.1026,6.1023,6.1055,6.1054,6.1052,0,0,0,0,0,0,6.1953,6.1847,6.1829,6.1742,6.1677,6.1581,6.1542,6.1517,6.1448,6.1447,6.1382,6.136,6.1281,6.1233,6.1259,6.113,6.113,6.1123,6.1163,6.1161,6.116,6.1172,6.1231,0,0,0,0,0,6.1952,6.1889,6.1799,6.1731,6.1699,6.1627,6.1585,6.155,6.1478,6.1449,6.1386,6.1316,6.1247,6.1201,6.1131,6.1049,6.1027,6.1017,6.1016,6.1016,6.101,6.0966,6.0961,6.1012,6.1012,6.1012,0,0,6.1948,6.1882,6.1845,6.1737,6.1682,6.1617,6.1603,6.1534,6.1486,6.1438,6.1355,6.1307,6.1225,6.1143,6.1103,6.11,6.0992,6.1012,6.1013,6.1006,6.0962,6.0958,6.0953,6.101,6.101,6.1011,0,0,6.1907,6.1851,6.179,6.1736,6.1654,6.1607,6.1593,6.1503,6.147,6.1386,6.135,6.1292,6.1171,6.1116,6.1072,6.1018,6.0992,6.0997,6.0991,6.0949,6.0945,6.0941,6.0923,6.0917,6.0991,6.0992,6.0992,0,6.1911,6.1814,6.1761,6.1696,6.165,6.1607,6.1546,6.1496,6.1394,6.1364,6.1364,6.1216,6.1157,6.1063,6.105,6.1016,6.0998,6.1007,6.095,6.0945,6.0941,6.0923,6.0917,6.0993,6.0993,6.0992,6.0992,0,6.1825,6.1758,6.1718,6.1625,6.1575,6.1512,6.145,6.1406,6.1377,6.1331,6.1248,6.1178,6.1095,6.107,6.1039,6.0972,6.0974,6.0963,6.0962,6.0938,6.0921,6.0913,6.0994,6.0994,6.0994,6.0993,0,0,6.1798,6.1682,6.1668,6.1627,6.1536,6.1483,6.142,6.1341,6.1306,6.1239,6.1184,6.1087,6.1078,6.1028,6.0991,6.0955,6.092,6.0948,6.0946,6.0946,6.0844,6.0853,6.0846,6.0903,6.0902,6.0901,6.0852,0,6.1747,6.1632,6.1585,6.1493,6.1432,6.1394,6.1338,6.1277,6.1234,6.1176,6.1128,6.106,6.1052,6.1023,6.0985,6.0932,6.0898,6.0935,6.0852,6.085,6.0873,6.0836,6.0844,6.0801,6.0844,6.0843,6.0842,0,6.1669,6.1606,6.1509,6.143,6.1402,6.1354,6.128,6.1225,6.1157,6.1128,6.1076,6.1043,6.0976,6.0982,6.089,6.0916,6.0881,6.085,6.0847,6.0836,6.0844,6.0825,6.0786,6.078,6.083,6.0831,6.0832,0,6.1663,6.1552,6.1481,6.1447,6.1352,6.132,6.1279,6.1211,6.1168,6.1105,6.1077,6.1005,6.0966,6.0912,6.0861,6.087,6.0775,6.0776,6.075,6.0751,6.073,6.0731,6.0684,6.0708,6.0708,6.0708,6.0708,0,6.1609,6.1551,6.1477,6.1432,6.1368,6.1315,6.1252,6.1209,6.115,6.1097,6.106,6.1011,6.0947,6.089,6.085,6.0782,6.0764,6.0739,6.0729,6.0742,6.0745,6.0717,6.0718,6.0706,6.0706,6.0707,6.0707,0,6.1589,6.1536,6.1456,6.1376,6.1354,6.131,6.1241,6.1197,6.1155,6.1089,6.107,6.1002,6.0935,6.0879,6.0789,6.0763,6.0692,6.068,6.0715,6.071,6.0687,6.0691,6.0619,6.0608,6.064,6.0639,6.0639,0,6.1558,6.1513,6.1429,6.1393,6.1353,6.1293,6.1251,6.12,6.1157,6.1079,6.1045,6.0975,6.0916,6.081,6.0753,6.0685,6.0672,6.0652,6.0661,6.0677,6.0672,6.0676,6.0672,6.065,6.065,6.065,6.065,0,6.1509,6.1487,6.1428,6.1362,6.1313,6.1258,6.1201,6.1173,6.1111,6.1066,6.0998,6.0953,6.0864,6.0796,6.0723,6.0681,6.0656,6.0649,6.0639,6.0651,6.0674,6.0663,6.0713,6.065,6.065,6.065,6.065,6.065,6.1482,6.1442,6.1379,6.1316,6.1269,6.1219,6.1175,6.1129,6.1071,6.0996,6.0969,6.09,6.0837,6.0737,6.0695,6.0641,6.0638,6.0624,6.062,6.0617,6.062,6.0685,6.0627,6.0627,6.0627,6.0627,6.0627,0,6.1433,6.1391,6.1334,6.1259,6.121,6.1194,6.1132,6.1092,6.1032,6.0975,6.092,6.0844,6.0779,6.0719,6.0652,6.062,6.0607,6.0604,6.0605,6.0596,6.0626,6.0641,6.0616,6.0616,6.0616,6.0616,6.0616,6.0616,6.1401,6.1333,6.1305,6.1215,6.1173,6.1106,6.1073,6.1027,6.0982,6.0899,6.0846,6.0809,6.0752,6.0681,6.0621,6.0606,6.0583,6.0583,6.0564,6.0592,6.0594,6.0596,6.061,6.0578,6.0578,6.0539,6.0539,6.0539]},{"header":{"parameterUnit":"m.s-1","parameterCategory":1,"la1":30.2991,"la2":30.254,"lo1":-89.0895,"lo2":-89.0444,"dy":0.0017,"dx":0.0017,"nx":28,"ny":28,"refTime":"2026-02-14T03:00:00:Z","depth":0,"parameterNumber":3,"parameterNumberName":"V-component_of_WINDS"},"data":[0,0,0,0,0,0,0,0,0,0,0,0,0,0,0,0,0,0,0,0,0,0,0,0,0,0,0,0,0,0,0,0,0,0,0,0,0,0,0,0,0,0,0,0,0,0,0,0,0,0,0,0,0,0,0,0,0,0,3.3849,3.3851,0,3.4019,3.4021,3.4023,3.4047,3.4045,3.4043,3.4042,3.4216,3.4222,3.4228,0,0,0,0,0,0,0,0,0,0,0,0,0,3.3547,3.3553,3.3849,3.3851,3.3854,3.4018,3.4021,3.4023,3.4047,3.4045,3.4043,3.4041,3.4214,3.4221,3.4228,0,0,0,0,0,0,0,0,0,0,0,0,0,3.3694,3.3555,3.3849,3.3885,3.389,3.4018,3.4021,3.4024,3.4047,3.4045,3.4043,3.404,3.4212,3.422,3.423,3.4333,0,0,3.4257,3.4261,0,0,0,0,0,0,0,0,3.3685,3.3705,3.3878,3.3883,3.3889,3.4009,3.3978,3.4127,3.4048,3.3988,3.4042,3.4039,3.4149,3.4163,3.42,3.4341,3.4349,3.4258,3.4264,3.4268,3.427,0,0,0,0,0,0,0,3.3675,3.3698,3.3916,3.388,3.3887,3.3893,3.3912,3.4007,3.408,3.3993,3.3995,3.4015,3.4152,3.4191,3.4204,3.4351,3.4258,3.4266,3.4272,3.4275,3.4587,3.4589,0,0,0,0,0,0,3.3658,3.3689,3.3911,3.3921,3.3779,3.3901,3.3921,3.3973,3.4079,3.4092,3.4016,3.4015,3.4177,3.4194,3.4211,3.434,3.4268,3.4276,3.4281,3.4584,3.4587,3.459,0,0,0,0,0,0,3.3652,3.3678,3.3904,3.3806,3.3835,3.3908,3.3966,3.3977,3.4017,3.4096,3.411,3.4043,3.4176,3.4198,3.4303,3.4346,3.428,3.4289,3.4581,3.4585,3.4589,3.4598,0,0,0,0,0,0,3.3643,3.3675,3.3715,3.3807,3.384,3.3993,3.3969,3.3982,3.4033,3.4033,3.4125,3.4138,3.4176,3.4289,3.4312,3.4357,3.4296,3.4577,3.4583,3.4588,3.4594,3.4602,3.4608,0,0,0,0,0,3.3632,3.3711,3.3717,3.3744,3.3892,3.3995,3.4015,3.4056,3.4036,3.4077,3.4128,3.4135,3.4337,3.4299,3.4325,3.4374,3.4575,3.4581,3.4587,3.4591,3.46,3.4608,0,0,0,0,0,0,3.3622,3.3723,3.3731,3.3842,3.391,3.3999,3.4052,3.4064,3.4139,3.4136,3.4184,3.4204,3.4307,3.4351,3.4307,3.4481,3.4454,3.4466,3.4448,3.4458,3.4465,3.4452,3.4303,0,0,0,0,0,3.3633,3.3708,3.3793,3.3882,3.3916,3.3978,3.4025,3.405,3.4123,3.4152,3.421,3.4281,3.436,3.4411,3.4489,3.46,3.4621,3.4647,3.4654,3.466,3.4669,3.4733,3.4746,3.4611,3.4611,3.4611,0,0,3.3655,3.372,3.3765,3.3882,3.3937,3.4015,3.4002,3.4084,3.4143,3.4164,3.4267,3.4313,3.4394,3.4503,3.4554,3.4543,3.4711,3.4668,3.4671,3.4679,3.4741,3.4753,3.4765,3.4615,3.4615,3.4614,0,0,3.3737,3.3793,3.3874,3.393,3.4015,3.4056,3.4075,3.4163,3.4195,3.4298,3.4317,3.4387,3.4522,3.458,3.4627,3.4731,3.4742,3.4755,3.4793,3.4855,3.4865,3.4875,3.4913,3.4926,3.4765,3.4765,3.4765,0,3.3754,3.3872,3.3914,3.3996,3.4048,3.4071,3.4154,3.4206,3.4312,3.4347,3.4333,3.4504,3.4561,3.4684,3.471,3.4747,3.4771,3.4745,3.486,3.487,3.488,3.4917,3.4931,3.4766,3.4766,3.4766,3.4765,0,3.3889,3.3971,3.4026,3.4128,3.4186,3.4268,3.4323,3.4376,3.4397,3.444,3.4546,3.4614,3.4707,3.4738,3.4759,3.4865,3.4856,3.485,3.4825,3.4893,3.4929,3.4943,3.4768,3.4767,3.4767,3.4766,0,0,3.3968,3.4093,3.4113,3.416,3.4256,3.432,3.4403,3.4494,3.4539,3.4611,3.4683,3.4797,3.4794,3.4847,3.4875,3.4929,3.5009,3.4918,3.492,3.4933,3.5131,3.5135,3.515,3.5016,3.5019,3.5021,3.5124,0,3.4061,3.4211,3.4252,3.4379,3.4455,3.4479,3.4552,3.4619,3.4661,3.4732,3.4779,3.486,3.4849,3.4881,3.4935,3.4987,3.5049,3.498,3.5084,3.5087,3.5063,3.5169,3.5173,3.5267,3.5138,3.5141,3.5143,0,3.4189,3.4264,3.4399,3.4486,3.452,3.4585,3.4671,3.4739,3.4816,3.4843,3.4903,3.4927,3.5016,3.4985,3.5109,3.5061,3.5106,3.5138,3.5143,3.5155,3.5119,3.5184,3.5298,3.5313,3.5165,3.5163,3.5161,0,3.4234,3.4369,3.4467,3.4507,3.4611,3.4656,3.4701,3.4776,3.4828,3.4904,3.4939,3.5024,3.5071,3.5136,3.5183,3.5156,3.5303,3.5276,3.5329,3.5328,3.5359,3.5356,3.5483,3.5386,3.5386,3.5386,3.5386,0,3.4333,3.4415,3.4489,3.455,3.4642,3.4689,3.4779,3.4826,3.4892,3.4963,3.4988,3.5054,3.5111,3.5184,3.5221,3.5319,3.5339,3.5364,3.5373,3.5363,3.536,3.5393,3.5388,3.539,3.5389,3.5388,3.5388,0,3.4399,3.4452,3.4561,3.4651,3.4675,3.474,3.4817,3.4877,3.4921,3.501,3.5033,3.5102,3.519,3.5242,3.5354,3.5378,3.5487,3.5492,3.5461,3.5465,3.5515,3.551,3.5668,3.5692,3.5578,3.5579,3.558,0,3.4459,3.4522,3.4619,3.4669,3.4715,3.4794,3.4847,3.4896,3.4951,3.5044,3.5094,3.5183,3.5258,3.5398,3.5458,3.5543,3.5552,3.5601,3.5565,3.5553,3.5554,3.555,3.5557,3.5607,3.5608,3.5609,3.561,0,3.456,3.4584,3.466,3.4746,3.481,3.488,3.495,3.4989,3.5049,3.511,3.5201,3.5258,3.5373,3.5462,3.5553,3.56,3.5616,3.5621,3.5638,3.5628,3.5608,3.5621,3.5479,3.5617,3.5616,3.5616,3.5615,3.5615,3.4625,3.4684,3.4762,3.4846,3.4904,3.4969,3.5031,3.5082,3.5159,3.5256,3.528,3.5376,3.5452,3.5576,3.5626,3.5702,3.5694,3.5718,3.5724,3.573,3.5732,3.5595,3.5718,3.5718,3.5718,3.5718,3.5718,0,3.4729,3.478,3.4858,3.4955,3.5023,3.5031,3.511,3.5165,3.5249,3.5319,3.5392,3.5497,3.5585,3.5652,3.5741,3.5789,3.5799,3.5811,3.5809,3.582,3.5733,3.571,3.5802,3.5802,3.5802,3.5802,3.5802,3.5802,3.479,3.489,3.4923,3.5052,3.5103,3.5197,3.5241,3.5302,3.5358,3.5475,3.5547,3.5591,3.5661,3.5756,3.5836,3.5854,3.5886,3.5898,3.5917,3.5835,3.5826,3.5817,3.5796,3.5904,3.5904,3.5997,3.5998,3.5999]}]]